Location: ??
(35.4824°N, 139.4679°E)
Time: 21:01:40
(UTC+00:00)

X-37B - Visible Passes

Search period start: 18 January 2021 00:00
Search period end: 28 January 2021 00:00
Orbit: 384 x 390 km, 45.0° (Epoch: 02 January)

Date Brightness Start Highest point End Pass type
(mag) Time Alt. Az. Time Alt. Az. Time Alt. Az.
18 Jan 1.8 08:33:18 10° SSW 08:36:07 29° SE 08:38:34 12° E visible
18 Jan 3.4 10:09:43 10° W 10:10:52 19° W 10:10:52 19° W visible
19 Jan 0.8 09:10:59 10° WSW 09:14:08 63° NNW 09:15:13 36° NE visible
20 Jan 2.7 09:49:51 10° WNW 09:51:49 22° NW 09:51:49 22° NW visible
21 Jan 1.8 08:50:54 10° W 08:53:51 35° NNW 08:56:04 15° NE visible
22 Jan 2.7 09:30:04 10° WNW 09:32:21 18° NNW 09:32:35 18° N visible
23 Jan 2.4 08:31:01 10° WNW 08:33:39 23° NNW 08:36:18 10° NE visible
24 Jan 2.8 09:10:17 10° NW 09:12:16 15° N 09:13:15 14° NNE visible
25 Jan 3.3 09:48:57 10° NNW 09:49:44 13° NNW 09:49:44 13° NNW visible
26 Jan 2.9 08:50:20 10° NW 08:52:12 15° N 08:53:58 10° NE visible
27 Jan 2.6 09:28:33 10° NW 09:30:31 18° N 09:30:31 18° N visible
